Regional Weather Roundup
Issued by NWS

Home | Current Version | Previous Version | Text Only | Print | Product List | Glossary Off
Versions: 1 2 3 4 5 6 7 8 9 10 11 12 13 14 15 16 17 18 19 20 21 22 23 24 25 26 27 28 29 30 31 32 33 34 35 36 37 38 39 40 41 42 43 44 45 46 47 48 49

000
ASUS45 KSLC 102010
RWRUT

UTAH REGIONAL WEATHER ROUNDUP
NATIONAL WEATHER SERVICE SALT LAKE CITY UT
200 PM MDT THU JUL 10 2014

UTZ001>011-023>025-102100-

NORTHERN UTAH

CITY           SKY/WX    TMP DP  RH WIND       PRES   REMARKS
HILL AFB       MOSUNNY   86  53  32 W8        30.02F
LOGAN          SUNNY     82  55  39 CALM      30.01F
OGDEN          MOSUNNY   88  51  28 NW5       29.99F
PROVO AIRPORT  NOT AVBL
SALT LAKE CITY MOSUNNY   88  51  28 SE3       29.97F
VERNAL         MOSUNNY   87  50  27 S13       30.02F
WENDOVER       MOSUNNY   91  46  21 SE13      29.96F
HEBER CITY     PTSUNNY   82  46  28 W8        30.07F

$$

UTZ012>022-026-027-102100-

SOUTHERN UTAH

CITY           SKY/WX    TMP DP  RH WIND       PRES   REMARKS
BRYCE CANYON   PTSUNNY   73  51  46 NW9G22    30.26F
CEDAR CITY     PTSUNNY   84  53  34 SW12G20   30.09F
MILFORD        CLOUDY    81  53  37 NE17G25   30.02F
MOAB/CYNLANDS  SUNNY     88  52  29 VRB3      29.98F
PRICE          MOSUNNY   84  53  34 SW7       30.10F
ST GEORGE      NOT AVBL

$$

REGIONAL REPORTS     COLORADO/ARIZONA

CITY           SKY/WX    TMP DP  RH WIND       PRES   REMARKS
CRAIG, CO      PTSUNNY   79  49  34 W12       30.12F
GRAND JUNCTION MOSUNNY   88  48  25 SW7       30.02F
RIFLE          PTSUNNY   83  47  28 SE9       30.07F
MONTROSE       MOSUNNY   90  46  21 NW13      30.09F
CORTEZ         SUNNY     85  50  29 VRB5      30.13F
PAGE, AZ       MOSUNNY   91  51  25 CALM      29.99F
GRAND CANYON   PTSUNNY   77  54  44 SW15      30.20F
KINGMAN        LGT RAIN  82  62  50 S5        30.01F
FLAGSTAFF      MOSUNNY   77  47  34 SW13G22   30.24F

$$

REGIONAL REPORTS    NEVADA/IDAHO/WYOMING

CITY           SKY/WX    TMP DP  RH WIND       PRES   REMARKS
LAS VEGAS, NV  CLOUDY    89  56  32 S3        29.87F
ELY            LGT RAIN  74  52  46 NE6       30.13F
ELKO           MOSUNNY   91  44  19 SW14G21   30.01F
POCATELLO, ID  MOSUNNY   89  48  24 W13G20    30.00F
BURLEY         SUNNY     86  50  28 W12       29.97F
EVANSTON, WY   PTSUNNY   74  51  44 W14       30.19F
ROCK SPRINGS   PTSUNNY   81  45  28 W16G26    30.13F

$$


USA.gov is the U.S. government's official web portal to all federal, state and local government web resources and services.